FW2547 Weather Reports


time (UTC)temp
C
wind
direction
speed
KPH
gust
KPH
rain 1hr
cm
rain 24hr
cm
rain mn
cm
humidity
%
barometer
mb
20260510034609 29 302 9.7 16.1 0.00 0.00 0.00 10 1004.4
20260510033058 29 291 14.5 24.1 0.00 0.00 0.00 10 1004.2
20260510031559 30 290 9.7 19.3 0.00 0.00 0.00 10 1004.0
20260510030055 31 304 14.5 22.5 0.00 0.00 0.00 10 1004.0
20260510024555 31 277 16.1 24.1 0.00 0.00 0.00 9 1003.7
20260510023055 31 262 12.9 24.1 0.00 0.00 0.00 9 1003.4
20260510021557 32 272 8.0 19.3 0.00 0.00 0.00 9 1003.1
20260510020053 32 248 6.4 16.1 0.00 0.00 0.00 9 1003.0
20260510014554 32 266 11.3 17.7 0.00 0.00 0.00 9 1002.8
20260510013052 33 275 4.8 14.5 0.00 0.00 0.00 9 1002.6
20260510011552 33 285 17.7 24.1 0.00 0.00 0.00 9 1002.5
20260510010050 33 239 8.0 19.3 0.00 0.00 0.00 8 1002.5
20260510004550 33 255 14.5 25.7 0.00 0.00 0.00 8 1002.6
20260510003049 33 259 9.7 17.7 0.00 0.00 0.00 7 1002.7
20260510001551 34 305 4.8 12.9 0.00 0.00 0.00 7 1002.7
20260510000046 33 257 1.6 17.7 0.00 0.00 0.00 7 1002.9
20260509234546 33 290 19.3 27.4 0.00 0.00 0.00 7 1003.2
20260509233048 33 244 8.0 16.1 0.00 0.00 0.00 7 1003.1
20260509231541 33 246 9.7 19.3 0.00 0.00 0.00 7 1003.3
20260509230040 33 276 14.5 25.7 0.00 0.00 0.00 7 1003.4
20260509224549 33 275 6.4 22.5 0.00 0.00 0.00 7 1003.7
20260509223038 33 250 6.4 25.7 0.00 0.00 0.00 7 1003.7
20260509221536 33 282 8.0 16.1 0.00 0.00 0.00 7 1003.9
20260509220034 33 36 6.4 14.5 0.00 0.00 0.00 7 1004.1
20260509214531 33 244 9.7 24.1 0.00 0.00 0.00 8 1004.5
20260509213028 33 279 6.4 16.1 0.00 0.00 0.00 8 1004.9
20260509211525 32 103 8.0 19.3 0.00 0.00 0.00 8 1005.1
20260509210030 33 317 14.5 25.7 0.00 0.00 0.00 8 1005.5
20260509204520 33 259 6.4 16.1 0.00 0.00 0.00 9 1005.7
20260509203019 32 211 1.6 9.7 0.00 0.00 0.00 10 1005.9
20260509201516 33 172 6.4 14.5 0.00 0.00 0.00 10 1006.2
20260509200014 32 186 6.4 11.3 0.00 0.00 0.00 11 1006.4
20260509194512 32 238 9.7 14.5 0.00 0.00 0.00 10 1006.6
20260509193013 32 285 8.0 12.9 0.00 0.00 0.00 11 1006.8
20260509191507 31 266 1.6 12.9 0.00 0.00 0.00 13 1007.0
20260509190004 31 238 8.0 14.5 0.00 0.00 0.00 14 1007.2
20260509184559 30 306 1.6 12.9 0.00 0.00 0.00 15 1007.3
20260509183057 30 69 3.2 9.7 0.00 0.00 0.00 15 1007.7
20260509181559 29 97 0.0 8.0 0.00 0.00 0.00 16 1008.1
20260509180055 28 238 1.6 11.3 0.00 0.00 0.00 17 1008.2
20260509174547 28 210 0.0 6.4 0.00 0.00 0.00 17 1008.4
20260509173042 27 323 1.6 8.0 0.00 0.00 0.00 18 1008.6
20260509171542 26 180 4.8 9.7 0.00 0.00 0.00 18 1008.7
20260509170035 26 297 3.2 6.4 0.00 0.00 0.00 19 1008.8
20260509164531 25 223 4.8 8.0 0.00 0.00 0.00 20 1008.8
20260509163027 25 189 1.6 8.0 0.00 0.00 0.00 22 1008.7
20260509161523 24 180 1.6 6.4 0.00 0.00 0.00 24 1008.6
20260509160018 23 59 3.2 6.4 0.00 0.00 0.00 25 1008.6
20260509154518 22 116 1.6 6.4 0.00 0.00 0.00 27 1008.5
20260509153010 21 59 8.0 11.3 0.00 0.00 0.00 30 1008.6
20260509151504 21 119 1.6 6.4 0.00 0.00 0.00 32 1008.7
20260509150104 20 76 1.6 4.8 0.00 0.00 0.00 33 1008.8
20260509144556 20 77 3.2 6.4 0.00 0.00 0.00 36 1008.8
20260509143055 19 86 1.6 4.8 0.00 0.00 0.00 36 1008.8
20260509141548 19 86 0.0 3.2 0.00 0.00 0.00 36 1008.8
20260509140048 18 87 0.0 3.2 0.00 0.00 0.00 39 1008.7
20260509134555 17 87 1.6 4.8 0.00 0.00 0.00 39 1008.7
20260509133034 17 87 3.2 6.4 0.00 0.00 0.00 40 1008.5
20260509131544 17 96 0.0 6.4 0.00 0.00 0.00 41 1008.2
20260509130031 17 59 1.6 8.0 0.00 0.00 0.00 41 1007.9
20260509124523 16 58 6.4 8.0 0.00 0.00 0.00 41 1007.6
20260509123018 16 58 3.2 4.8 0.00 0.00 0.00 41 1007.5
20260509121523 16 57 0.0 3.2 0.00 0.00 0.00 42 1007.1
20260509120013 16 57 3.2 4.8 0.00 0.00 0.00 41 1007.0
20260509114522 16 58 1.6 6.4 0.00 0.00 0.00 41 1006.6
20260509113010 17 57 3.2 8.0 0.00 0.00 0.00 40 1006.6
20260509111508 17 57 1.6 4.8 0.00 0.00 0.00 38 1006.5
20260509110006 17 57 1.6 6.4 0.00 0.00 0.00 38 1006.5
20260509104506 17 58 4.8 8.0 0.00 0.00 0.00 38 1006.5
20260509103003 17 72 3.2 8.0 0.00 0.00 0.00 38 1006.3
20260509101501 18 72 4.8 9.7 0.00 0.00 0.00 37 1006.4
20260509100059 18 73 4.8 8.0 0.00 0.00 0.00 37 1006.3
20260509094558 18 74 4.8 8.0 0.00 0.00 0.00 36 1006.3
20260509093059 18 81 4.8 8.0 0.00 0.00 0.00 36 1006.2
20260509091555 18 65 4.8 12.9 0.00 0.00 0.00 35 1006.3
20260509090052 19 68 8.0 12.9 0.00 0.00 0.00 35 1006.3
20260509084551 19 58 6.4 9.7 0.00 0.00 0.00 35 1006.5
20260509083050 19 63 6.4 9.7 0.00 0.00 0.00 35 1006.4
20260509081550 20 64 8.0 12.9 0.00 0.00 0.00 33 1006.3
20260509080043 20 64 9.7 14.5 0.00 0.00 0.00 33 1006.4
20260509074553 20 60 11.3 16.1 0.00 0.00 0.00 33 1006.4
20260509073038 20 68 9.7 14.5 0.00 0.00 0.00 33 1006.5
20260509071536 20 57 8.0 11.3 0.00 0.00 0.00 32 1006.5
20260509070035 20 63 6.4 12.9 0.00 0.00 0.00 31 1006.7
20260509064540 21 63 6.4 9.7 0.00 0.00 0.00 31 1006.7
20260509063029 21 67 6.4 12.9 0.00 0.00 0.00 30 1006.8
20260509061528 21 74 3.2 9.7 0.00 0.00 0.00 29 1007.2
20260509060023 21 80 4.8 12.9 0.00 0.00 0.00 28 1006.8
20260509054523 22 59 6.4 8.0 0.00 0.00 0.00 27 1006.8
20260509053022 22 71 6.4 14.5 0.00 0.00 0.00 25 1006.8
20260509051524 23 116 9.7 19.3 0.00 0.00 0.00 21 1006.5
20260509050022 25 94 6.4 14.5 0.00 0.00 0.00 16 1006.5
20260509044520 25 211 3.2 4.8 0.00 0.00 0.00 15 1006.2
20260509043020 26 212 1.6 3.2 0.00 0.00 0.00 16 1006.3
20260509041520 26 212 0.0 4.8 0.00 0.00 0.00 15 1006.1